Flag for Jamaica Weather past 2 weeks in Montego Bay, Jamaica

Now
77 °F

Passing clouds.


Feels Like: 79 °F
Forecast: 75 / 91 °F
Wind: 2 mph from North

Location: Montego Bay / Sangster

Current Time: Apr 28, 2015 at 5:53:03 AM

Latest Report: Apr 28, 2015 at 5:00 AM


Visibility: N/A

Pressure: 29.80 "Hg

Humidity: 79%

Dew point: 70 °F

Location of Montego BayLocation

Historic Weather in Montego Bay — Graph

°F

Montego Bay temperature yesterday

Maximum temperature yesterday: 88 °F (at 2:00 PM)
Minimum temperature yesterday: 77 °F (at 1:00 AM)
Average temperature yesterday: 82 °F

Past Weeks' High & Low Weather Summary

 TemperatureHumidityPressure
High88 °F (Apr 20, 1:00 PM)100% (Apr 18, 2:00 AM)30.07 "Hg (Apr 18, 2:00 AM)
Low73 °F (Apr 15, 6:00 AM)62% (Apr 18, 8:00 AM)29.77 "Hg (Apr 28, 3:00 AM)
Average81 °F80%29.94 "Hg
* Reported Apr 13 5:00 AM — Apr 28 5:00 AM, Montego Bay, Weather by CustomWeather, © 2015

Note: Actual official high and low records may vary slightly from our data, if they occured in-between our weather recording intervals... More about our weather records

Advertising

Montego Bay weather history for previous 24 hours

 ConditionsComfort  
Time TempWeatherWind HumidityBarometerVisibility
5:00 AM
Tue, Apr 28
77 °FPassing clouds.2 mph79%29.80 "HgN/A
4:00 AM77 °FPassing clouds.2 mph83%29.77 "HgN/A
3:00 AM79 °FPassing clouds.2 mph84%29.77 "HgN/A
2:00 AM79 °FPassing clouds.2 mph84%29.80 "HgN/A
1:00 AM79 °FPassing clouds.2 mph84%29.80 "HgN/A
12:00 AM81 °FPassing clouds.3 mph84%29.83 "HgN/A
11:00 PM
Mon, Apr 27
82 °FPassing clouds.2 mph79%29.83 "HgN/A
10:00 PM81 °FPassing clouds.3 mph89%29.83 "HgN/A
9:00 PM82 °FPassing clouds.1 mph84%29.83 "HgN/A
8:00 PM81 °FPassing clouds.5 mph89%29.83 "HgN/A
7:00 PM82 °FPassing clouds.6 mph84%29.83 "HgN/A
6:00 PM84 °FPassing clouds.8 mph84%29.80 "HgN/A
5:00 PM84 °FScattered clouds.9 mph84%29.80 "HgN/A
4:00 PM86 °FPassing clouds.7 mph79%29.80 "HgN/A
3:00 PM86 °FPassing clouds.5 mph84%29.80 "HgN/A
2:00 PM88 °FPassing clouds.6 mph75%29.83 "HgN/A
1:00 PM86 °FPassing clouds.8 mph79%29.83 "HgN/A
12:00 PM86 °FPassing clouds.8 mph79%29.86 "HgN/A
11:00 AM84 °FPassing clouds.8 mph79%29.86 "HgN/A
10:00 AM84 °FPassing clouds.9 mph79%29.86 "HgN/A
9:00 AM82 °FPassing clouds.9 mph79%29.86 "HgN/A
8:00 AM82 °FPassing clouds.5 mph79%29.86 "HgN/A
7:00 AM81 °FPassing clouds.2 mph84%29.83 "HgN/A
6:00 AM79 °FPassing clouds.3 mph79%29.80 "HgN/A
5:00 AM77 °FPassing clouds.3 mph89%29.80 "HgN/A
Weather by CustomWeather, © 2015

See weather overviewHow to use our weather pages